TimeCDT,TemperatureF,Dew PointF,Humidity,Sea Level PressureIn,VisibilityMPH,Wind Direction,Wind SpeedMPH,Gust SpeedMPH,PrecipitationIn,Events,Conditions,WindDirDegrees,DateUTC
12:15 AM,30.2,13.1,49,30.15,10.0,East,9.2,-,N/A,,Clear,100,2014-04-03 05:15:00
12:35 AM,29.8,14.7,53,30.15,10.0,East,9.2,-,N/A,,Scattered Clouds,100,2014-04-03 05:35:00
12:55 AM,30.0,16.2,56,30.15,10.0,East,6.9,-,N/A,,Scattered Clouds,90,2014-04-03 05:55:00
1:15 AM,30.0,17.4,59,30.15,10.0,ESE,8.1,-,N/A,,Mostly Cloudy,110,2014-04-03 06:15:00
1:35 AM,29.8,17.8,61,30.14,10.0,ESE,9.2,-,N/A,,Overcast,110,2014-04-03 06:35:00
1:55 AM,29.3,16.9,60,30.14,10.0,East,8.1,-,N/A,,Scattered Clouds,100,2014-04-03 06:55:00
2:15 AM,29.3,17.1,60,30.15,10.0,ESE,5.8,-,N/A,,Mostly Cloudy,110,2014-04-03 07:15:00
2:35 AM,28.9,17.1,61,30.15,10.0,ESE,4.6,-,N/A,,Overcast,110,2014-04-03 07:35:00
2:55 AM,28.8,14.9,56,30.16,10.0,ESE,8.1,-,N/A,,Overcast,120,2014-04-03 07:55:00
3:15 AM,27.9,14.7,58,30.14,10.0,East,9.2,-,N/A,,Overcast,100,2014-04-03 08:15:00
3:35 AM,27.5,15.6,61,30.14,10.0,ENE,8.1,-,N/A,,Overcast,70,2014-04-03 08:35:00
3:55 AM,27.0,13.3,56,30.13,10.0,East,8.1,-,N/A,,Overcast,90,2014-04-03 08:55:00
4:15 AM,26.4,12.4,55,30.13,10.0,East,9.2,-,N/A,,Overcast,80,2014-04-03 09:15:00
4:35 AM,26.1,11.3,54,30.13,10.0,East,8.1,-,N/A,,Overcast,90,2014-04-03 09:35:00
5:15 AM,25.3,11.5,56,30.11,10.0,East,10.4,-,N/A,,Overcast,90,2014-04-03 10:15:00
5:35 AM,25.0,12.0,58,30.11,10.0,East,8.1,-,N/A,,Overcast,100,2014-04-03 10:35:00
5:55 AM,24.8,11.8,58,30.10,10.0,East,12.7,-,N/A,,Overcast,100,2014-04-03 10:55:00
6:15 AM,23.9,11.8,60,30.10,10.0,ESE,5.8,-,N/A,,Mostly Cloudy,110,2014-04-03 11:15:00
6:35 AM,23.9,11.7,60,30.10,10.0,ESE,11.5,-,N/A,,Scattered Clouds,110,2014-04-03 11:35:00
6:55 AM,24.1,12.4,61,30.11,10.0,ESE,11.5,-,N/A,,Scattered Clouds,120,2014-04-03 11:55:00
7:15 AM,23.9,13.3,64,30.12,10.0,ESE,10.4,-,N/A,,Mostly Cloudy,110,2014-04-03 12:15:00
7:35 AM,24.1,14.0,65,30.11,10.0,ESE,11.5,16.1,N/A,,Mostly Cloudy,110,2014-04-03 12:35:00
7:55 AM,24.4,14.7,67,30.10,10.0,ESE,10.4,16.1,N/A,,Overcast,110,2014-04-03 12:55:00
8:15 AM,24.8,15.4,68,30.09,10.0,East,10.4,-,N/A,,Overcast,100,2014-04-03 13:15:00
8:35 AM,25.3,15.4,66,30.09,10.0,ESE,8.1,17.3,N/A,,Overcast,110,2014-04-03 13:35:00
8:55 AM,25.7,16.2,67,30.08,10.0,East,10.4,16.1,N/A,,Overcast,100,2014-04-03 13:55:00
9:15 AM,26.4,16.7,67,30.07,10.0,East,8.1,-,N/A,,Overcast,100,2014-04-03 14:15:00
9:35 AM,26.6,16.7,66,30.08,10.0,ESE,9.2,-,N/A,,Overcast,110,2014-04-03 14:35:00
9:55 AM,27.1,16.7,65,30.07,10.0,ESE,9.2,-,N/A,,Overcast,110,2014-04-03 14:55:00
10:15 AM,27.7,16.7,63,30.07,10.0,East,8.1,-,N/A,,Overcast,100,2014-04-03 15:15:00
10:35 AM,28.4,16.5,61,30.06,10.0,East,9.2,16.1,N/A,,Overcast,90,2014-04-03 15:35:00
10:55 AM,29.3,17.2,61,30.06,10.0,ESE,10.4,-,N/A,,Mostly Cloudy,110,2014-04-03 15:55:00
11:15 AM,30.0,17.2,59,30.04,10.0,East,11.5,-,N/A,,Scattered Clouds,90,2014-04-03 16:15:00
11:35 AM,31.6,16.7,54,30.03,10.0,East,15.0,20.7,N/A,,Scattered Clouds,80,2014-04-03 16:35:00
11:55 AM,31.6,18.0,57,30.03,10.0,East,10.4,17.3,N/A,,Overcast,80,2014-04-03 16:55:00
12:15 PM,32.0,17.1,54,30.03,10.0,East,12.7,-,N/A,,Overcast,90,2014-04-03 17:15:00
12:35 PM,32.2,17.1,54,30.03,10.0,ESE,11.5,17.3,N/A,,Overcast,110,2014-04-03 17:35:00
12:55 PM,32.9,16.5,51,30.02,10.0,ESE,12.7,-,N/A,,Overcast,110,2014-04-03 17:55:00
1:15 PM,33.1,16.2,50,30.01,10.0,ESE,11.5,17.3,N/A,,Overcast,110,2014-04-03 18:15:00
1:35 PM,33.8,16.3,49,30.01,10.0,East,15.0,18.4,N/A,,Overcast,100,2014-04-03 18:35:00
1:55 PM,34.0,16.5,49,29.99,10.0,East,16.1,23.0,N/A,,Overcast,100,2014-04-03 18:55:00
2:15 PM,34.2,17.1,50,29.97,10.0,East,10.4,18.4,N/A,,Overcast,100,2014-04-03 19:15:00
2:35 PM,34.7,18.1,51,29.96,10.0,East,9.2,-,N/A,,Overcast,80,2014-04-03 19:35:00
2:55 PM,34.9,18.0,50,29.95,10.0,East,9.2,-,N/A,,Overcast,100,2014-04-03 19:55:00
3:15 PM,34.9,17.4,49,29.93,10.0,East,13.8,18.4,N/A,,Overcast,90,2014-04-03 20:15:00
3:35 PM,34.9,18.0,50,29.91,10.0,East,10.4,18.4,N/A,,Overcast,90,2014-04-03 20:35:00
3:55 PM,34.9,17.2,49,29.90,10.0,East,11.5,24.2,N/A,,Overcast,90,2014-04-03 20:55:00
4:15 PM,34.7,16.9,48,29.90,10.0,East,10.4,20.7,N/A,,Overcast,90,2014-04-03 21:15:00
4:35 PM,34.7,17.4,49,29.90,10.0,East,8.1,16.1,N/A,,Overcast,90,2014-04-03 21:35:00
4:55 PM,34.5,17.1,49,29.91,10.0,East,10.4,-,N/A,,Overcast,100,2014-04-03 21:55:00
5:15 PM,34.3,18.3,52,29.91,10.0,East,9.2,-,N/A,,Overcast,90,2014-04-03 22:15:00
5:35 PM,34.3,18.0,51,29.91,10.0,East,12.7,17.3,N/A,,Overcast,80,2014-04-03 22:35:00
5:55 PM,34.0,18.5,53,29.91,10.0,East,11.5,-,N/A,,Overcast,90,2014-04-03 22:55:00
6:15 PM,33.6,19.4,56,29.91,5.0,East,17.3,21.9,N/A,Snow,Light Snow,80,2014-04-03 23:15:00
6:35 PM,31.6,23.4,71,29.90,0.8,ESE,15.0,26.5,N/A,Snow,Light Snow,110,2014-04-03 23:35:00
6:55 PM,29.7,26.1,86,29.89,0.2,ESE,13.8,19.6,N/A,Snow,Heavy Snow,110,2014-04-03 23:55:00
7:15 PM,29.3,28.9,99,29.89,0.2,East,8.1,-,N/A,Snow,Snow,90,2014-04-04 00:15:00
7:55 PM,29.8,28.4,94,29.87,2.5,East,9.2,18.4,N/A,Snow,Light Snow,80,2014-04-04 00:55:00
8:15 PM,29.8,28.4,94,29.87,2.5,East,10.4,-,N/A,Snow,Light Snow,90,2014-04-04 01:15:00
8:35 PM,29.7,28.9,97,29.87,1.8,ENE,5.8,-,N/A,Snow,Light Snow,70,2014-04-04 01:35:00
8:55 PM,29.7,28.8,96,29.87,2.0,ENE,9.2,-,N/A,Snow,Light Snow,70,2014-04-04 01:55:00
9:15 PM,29.1,28.4,97,29.86,1.8,ENE,10.4,-,N/A,Snow,Light Snow,60,2014-04-04 02:15:00
9:35 PM,29.3,28.4,96,29.86,2.5,ENE,9.2,-,N/A,,Overcast,70,2014-04-04 02:35:00
10:55 PM,28.0,27.1,96,29.84,1.2,East,8.1,-,N/A,Snow,Light Snow,80,2014-04-04 03:55:00
11:15 PM,27.9,27.1,97,29.83,1.8,ENE,8.1,-,N/A,Snow,Light Snow,70,2014-04-04 04:15:00
11:35 PM,27.7,27.1,98,29.81,1.0,ENE,9.2,-,N/A,Snow,Snow,70,2014-04-04 04:35:00
11:55 PM,27.5,27.0,98,29.78,0.8,ENE,13.8,-,N/A,Snow,Snow,70,2014-04-04 04:55:00